Showing default

AETHER-7, 67378

Orbit data source: Space-Track

AETHER-7, 67378 is a payload satellite owned by Kepler Comms (CA) in SSO that was launched on Sun, 11 Jan 2026 UTC via an FALCON 9 launch vehicle from the Air Force Western Test Range (AFWTR). Payload-class satellites include a variety of spacecraft equipped with specific instruments for various scientific and technological missions. These include communications satellites like Starlink; space stations such as the ISS; scientific satellites like the Hubble; Earth observation satellites from companies like Planet Labs, Umbra, and HawkEye 360; GPS; miniature CubeSats for education and research; and military/defense satellites.

Loading next visibility...
Identifier
67378, 2026-004R
Orbit
SSO
Country
Flag of CACA
Related business
Manufacturer
Kepler Comms
Mission
Operational spacecraft
Bus & Motor
KEPLER GEN2B, Unknown motor
Mass
300 kg wet, 300 kg dry
Launch date (UTC)
2026-01-11 (3 months ago)
Launch vehicle
FALCON 9
Launch site
Air Force Western Test Range (AFWTR)
Object type
Payload
Rocket body
Debris
Shape & HBR
Unknown shape, 7.6 m
Radar Cross Section
RCS unknown

Expand to show TLE details & history
Last TLE update: 6 hours ago

TLE from 6 hours ago
0 AETHER-7
1 67378U 26004R   26095.54983336  .00001309  00000-0  14903-3 0  9999
2 67378  97.8014  95.3064 0005689  32.2587 327.8977 14.87859999 12481
Epoch: 2026-04-05T13:11Z
TLE epoch observation values (Epoch: 2026-04-05T13:11:45.602Z)
Latitude
0.00004°
Longitude
63.51273°
Altitude
604.293 km
Speed
7.559 km/s
True Right ascension
06h 21m 13s
True Declination
0° 00' 00"
Sunlit
Object was in daylight at epoch
Visualization orbit readout
Latitude
Unknown
Longitude
Unknown
Altitude
Unknown
Speed
Unknown
Apparent Right ascension
Unknown
Apparent Declination
Unknown
Sunlit
N/A
Visualization observer readout
Local Sidereal Time
00:59:55
Azimuth
Unknown
Elevation
Unknown
Doppler factor
Unknown
Orbital elements
Apogee altitude
605.62 km
Perigee altitude
597.678 km
Semi-major axis
6,979.786 km
Eccentricity
0.00057
Inclination
97.8014°
RAAN
95.3064°
Arg. of periapsis
32.2587°
True anomaly
327.86303°
Mean anomaly
327.8977°
Eccentric anomaly
327.88037°
Mean motion
3.72203 °/min
Orbital period
96.72 mins
BSTAR
0.00014903
Loading maneuver chart data...
Computing Atmospheric mass density...
Loading historical data...
Loading historical data...
Loading historical data...
Loading historical data...
Loading historical data...
Loading historical data...
Loading historical data...

Documentation

Showing up to 5 results
|